| time (UTC) | temp C | wind direction | speed KPH | gust KPH | rain 1hr cm | rain 24hr cm | rain mn cm | humidity % | barometer mb |
| 20260505014740 | 15 | 64 | 1.6 | 9.7 | 0.00 | 0.00 | 0.00 | 97 | 916.0 |
| 20260505014738 | 15 | 66 | 1.6 | 9.7 | 0.00 | 0.00 | 0.00 | 97 | 916.0 |
| 20260505014237 | 15 | 52 | 6.4 | 11.3 | 0.03 | 0.03 | 0.00 | 97 | 916.0 |
| 20260505014138 | 15 | 41 | 6.4 | 11.3 | 0.03 | 0.03 | 0.00 | 97 | 916.0 |
| 20260505013538 | 15 | 90 | 8.0 | 11.3 | 0.03 | 0.03 | 0.00 | 97 | 916.0 |
| 20260505012938 | 15 | 57 | 8.0 | 9.7 | 0.00 | 0.00 | 0.00 | 97 | 916.0 |
| 20260505012338 | 15 | 53 | 8.0 | 16.1 | 0.03 | 0.03 | 0.00 | 97 | 916.0 |
| 20260505012237 | 15 | 67 | 8.0 | 16.1 | 0.03 | 0.03 | 0.00 | 97 | 916.0 |
| 20260505011739 | 15 | 76 | 12.9 | 16.1 | 0.00 | 0.00 | 0.00 | 97 | 916.0 |
| 20260505011737 | 15 | 77 | 12.9 | 16.1 | 0.00 | 0.00 | 0.00 | 97 | 916.0 |
| 20260505011237 | 15 | 78 | 4.8 | 14.5 | 0.00 | 0.00 | 0.00 | 97 | 916.0 |
| 20260505010737 | 15 | 70 | 14.5 | 19.3 | 0.00 | 0.00 | 0.00 | 97 | 916.0 |
| 20260505010539 | 15 | 25 | 0.0 | 0.0 | 0.00 | 0.00 | 0.00 | 97 | 915.9 |
| 20260505010237 | 15 | 91 | 0.0 | 12.9 | 0.00 | 0.00 | 0.00 | 97 | 915.9 |
| 20260505005938 | 15 | 69 | 1.6 | 14.5 | 0.00 | 0.00 | 0.00 | 97 | 915.8 |
| 20260505005737 | 15 | 79 | 12.9 | 17.7 | 0.03 | 0.03 | 0.00 | 97 | 915.7 |
| 20260505005338 | 15 | 85 | 14.5 | 17.7 | 0.00 | 0.00 | 0.00 | 97 | 915.8 |
| 20260505005237 | 15 | 80 | 12.9 | 17.7 | 0.00 | 0.00 | 0.00 | 97 | 915.7 |
| 20260505004738 | 15 | 57 | 12.9 | 17.7 | 0.03 | 0.03 | 0.00 | 97 | 915.7 |
| 20260505004736 | 15 | 58 | 12.9 | 17.7 | 0.03 | 0.03 | 0.00 | 97 | 915.7 |
| 20260505004237 | 15 | 73 | 14.5 | 17.7 | 0.03 | 0.03 | 0.00 | 97 | 915.7 |
| 20260505004138 | 15 | 85 | 6.4 | 17.7 | 0.00 | 0.00 | 0.00 | 97 | 915.6 |
| 20260505003736 | 15 | 59 | 14.5 | 22.5 | 0.03 | 0.03 | 0.00 | 97 | 915.6 |
| 20260505003538 | 15 | 75 | 16.1 | 19.3 | 0.03 | 0.03 | 0.00 | 97 | 915.6 |
| 20260505003237 | 15 | 62 | 9.7 | 19.3 | 0.00 | 0.00 | 0.00 | 97 | 915.5 |
| 20260505002938 | 15 | 58 | 0.0 | 16.1 | 0.00 | 0.00 | 0.00 | 97 | 915.4 |
| 20260505002736 | 15 | 71 | 14.5 | 17.7 | 0.03 | 0.03 | 0.00 | 97 | 915.5 |
| 20260505002338 | 15 | 87 | 14.5 | 19.3 | 0.08 | 0.08 | 0.00 | 97 | 915.4 |
| 20260505002236 | 15 | 70 | 14.5 | 19.3 | 0.08 | 0.08 | 0.00 | 97 | 915.4 |
| 20260505001738 | 15 | 79 | 12.9 | 19.3 | 0.05 | 0.05 | 0.00 | 97 | 915.4 |
| 20260505001736 | 15 | 72 | 12.9 | 19.3 | 0.05 | 0.05 | 0.00 | 97 | 915.4 |
| 20260505001236 | 15 | 66 | 8.0 | 12.9 | 0.00 | 0.00 | 0.00 | 97 | 915.4 |
| 20260505001138 | 15 | 77 | 1.6 | 12.9 | 0.00 | 0.00 | 0.00 | 97 | 915.4 |
| 20260505000736 | 15 | 60 | 12.9 | 16.1 | 0.00 | 0.00 | 0.00 | 97 | 915.3 |
| 20260505000538 | 15 | 83 | 12.9 | 16.1 | 0.00 | 0.00 | 0.00 | 97 | 915.3 |
| 20260504235938 | 15 | 66 | 9.7 | 12.9 | 0.00 | 0.00 | 0.00 | 97 | 915.3 |
| 20260504235736 | 15 | 79 | 9.7 | 12.9 | 0.00 | 0.00 | 0.00 | 97 | 915.4 |
| 20260504235337 | 15 | 60 | 0.0 | 9.7 | 0.00 | 0.00 | 0.00 | 97 | 915.3 |
| 20260504235237 | 15 | 63 | 11.3 | 17.7 | 0.00 | 0.00 | 0.00 | 97 | 915.3 |
| 20260504234738 | 15 | 75 | 12.9 | 16.1 | 0.00 | 0.00 | 0.00 | 97 | 915.1 |
| 20260504234736 | 15 | 72 | 12.9 | 16.1 | 0.00 | 0.00 | 0.00 | 97 | 915.1 |
| 20260504234237 | 15 | 63 | 6.4 | 17.7 | 0.00 | 0.00 | 0.00 | 97 | 915.1 |
| 20260504233736 | 15 | 80 | 12.9 | 19.3 | 0.00 | 0.00 | 0.00 | 97 | 915.1 |
| 20260504233537 | 15 | 50 | 14.5 | 19.3 | 0.00 | 0.00 | 0.00 | 97 | 915.1 |
| 20260504233236 | 15 | 75 | 16.1 | 19.3 | 0.00 | 0.00 | 0.00 | 97 | 915.1 |
| 20260504232937 | 15 | 58 | 12.9 | 19.3 | 0.00 | 0.00 | 0.00 | 97 | 915.0 |
| 20260504232736 | 15 | 54 | 12.9 | 19.3 | 0.00 | 0.00 | 0.00 | 97 | 915.0 |
| 20260504232337 | 15 | 46 | 8.0 | 17.7 | 0.00 | 0.00 | 0.00 | 97 | 915.0 |
| 20260504232236 | 15 | 66 | 0.0 | 16.1 | 0.00 | 0.00 | 0.00 | 97 | 915.0 |
| 20260504231738 | 15 | 85 | 16.1 | 17.7 | 0.03 | 0.03 | 0.00 | 97 | 914.9 |
| 20260504231736 | 15 | 66 | 16.1 | 17.7 | 0.03 | 0.03 | 0.00 | 97 | 914.9 |
| 20260504231236 | 15 | 72 | 12.9 | 17.7 | 0.03 | 0.03 | 0.00 | 97 | 914.9 |
| 20260504231137 | 15 | 69 | 12.9 | 19.3 | 0.03 | 0.03 | 0.00 | 97 | 914.9 |
| 20260504230736 | 15 | 58 | 14.5 | 19.3 | 0.03 | 0.03 | 0.00 | 97 | 915.0 |
| 20260504230537 | 15 | 64 | 12.9 | 19.3 | 0.00 | 0.00 | 0.00 | 97 | 915.0 |
| 20260504230236 | 15 | 67 | 6.4 | 19.3 | 0.00 | 0.00 | 0.00 | 97 | 915.0 |
| 20260504225937 | 15 | 53 | 12.9 | 17.7 | 0.00 | 0.00 | 0.00 | 97 | 914.9 |
| 20260504225736 | 15 | 78 | 12.9 | 17.7 | 0.00 | 0.00 | 0.00 | 97 | 914.9 |
| 20260504225337 | 15 | 87 | 12.9 | 17.7 | 0.00 | 0.00 | 0.00 | 97 | 915.0 |
| 20260504225237 | 15 | 58 | 11.3 | 14.5 | 0.00 | 0.00 | 0.00 | 97 | 915.0 |
| 20260504224737 | 15 | 71 | 11.3 | 14.5 | 0.00 | 0.00 | 0.00 | 97 | 915.0 |
| 20260504224236 | 14 | 68 | 11.3 | 14.5 | 0.00 | 0.00 | 0.00 | 97 | 915.0 |
| 20260504224137 | 14 | 70 | 11.3 | 14.5 | 0.00 | 0.00 | 0.00 | 97 | 915.0 |
| 20260504223736 | 14 | 76 | 6.4 | 14.5 | 0.00 | 0.00 | 0.00 | 97 | 914.9 |
| 20260504223537 | 14 | 66 | 14.5 | 17.7 | 0.03 | 0.03 | 0.00 | 97 | 914.9 |
| 20260504223236 | 14 | 74 | 14.5 | 17.7 | 0.03 | 0.03 | 0.00 | 97 | 914.8 |
| 20260504222937 | 14 | 77 | 14.5 | 17.7 | 0.00 | 0.00 | 0.00 | 97 | 914.8 |
| 20260504222736 | 14 | 87 | 12.9 | 17.7 | 0.00 | 0.00 | 0.00 | 97 | 914.7 |
| 20260504222337 | 14 | 69 | 9.7 | 17.7 | 0.00 | 0.00 | 0.00 | 97 | 914.7 |
| 20260504222236 | 14 | 76 | 1.6 | 17.7 | 0.00 | 0.00 | 0.00 | 97 | 914.7 |
| 20260504221737 | 14 | 74 | 16.1 | 22.5 | 0.13 | 0.13 | 0.00 | 97 | 914.7 |
| 20260504221735 | 14 | 79 | 16.1 | 22.5 | 0.13 | 0.13 | 0.00 | 97 | 914.7 |
| 20260504221235 | 14 | 72 | 16.1 | 27.4 | 0.08 | 0.08 | 0.00 | 97 | 914.7 |
| 20260504220735 | 14 | 70 | 20.9 | 27.4 | 0.05 | 0.05 | 0.00 | 97 | 914.6 |
| 20260504220537 | 14 | 54 | 20.9 | 27.4 | 0.05 | 0.05 | 0.00 | 97 | 914.5 |
| 20260504220235 | 14 | 83 | 19.3 | 25.7 | 0.03 | 0.03 | 0.00 | 97 | 914.6 |
| 20260504215937 | 14 | 77 | 16.1 | 25.7 | 0.03 | 0.03 | 0.00 | 97 | 914.7 |
| 20260504215735 | 14 | 45 | 16.1 | 25.7 | 0.03 | 0.03 | 0.00 | 97 | 914.7 |
| 20260504215336 | 14 | 43 | 16.1 | 22.5 | 0.00 | 0.00 | 0.00 | 97 | 914.7 |
| 20260504215236 | 14 | 77 | 14.5 | 20.9 | 0.00 | 0.00 | 0.00 | 97 | 914.8 |
| 20260504214735 | 14 | 65 | 16.1 | 19.3 | 0.00 | 0.00 | 0.00 | 97 | 914.8 |
| 20260504214235 | 14 | 52 | 14.5 | 25.7 | 0.00 | 0.00 | 0.00 | 97 | 914.8 |
| 20260504214136 | 14 | 68 | 14.5 | 25.7 | 0.00 | 0.00 | 0.00 | 97 | 914.7 |
| 20260504213735 | 14 | 76 | 16.1 | 25.7 | 0.00 | 0.00 | 0.00 | 97 | 914.6 |
| 20260504213536 | 14 | 73 | 17.7 | 25.7 | 0.00 | 0.00 | 0.00 | 97 | 914.6 |
| 20260504213235 | 14 | 74 | 19.3 | 24.1 | 0.00 | 0.00 | 0.00 | 97 | 914.5 |
| 20260504212936 | 14 | 85 | 19.3 | 24.1 | 0.00 | 0.00 | 0.00 | 97 | 914.4 |
| 20260504212735 | 14 | 79 | 6.4 | 24.1 | 0.00 | 0.00 | 0.00 | 97 | 914.4 |
| 20260504212336 | 14 | 81 | 22.5 | 32.2 | 0.00 | 0.00 | 0.00 | 97 | 914.3 |
| 20260504212236 | 14 | 70 | 24.1 | 32.2 | 0.00 | 0.00 | 0.00 | 97 | 914.3 |
| 20260504211737 | 14 | 85 | 22.5 | 30.6 | 0.00 | 0.00 | 0.00 | 97 | 914.2 |
| 20260504211735 | 14 | 43 | 22.5 | 30.6 | 0.00 | 0.00 | 0.00 | 97 | 914.3 |
| 20260504211235 | 14 | 92 | 22.5 | 30.6 | 0.00 | 0.00 | 0.00 | 97 | 914.2 |
| 20260504211136 | 14 | 93 | 20.9 | 30.6 | 0.00 | 0.00 | 0.00 | 97 | 914.3 |
| 20260504210735 | 14 | 71 | 22.5 | 30.6 | 0.00 | 0.00 | 0.00 | 97 | 914.3 |
| 20260504210235 | 14 | 63 | 19.3 | 24.1 | 0.00 | 0.00 | 0.00 | 97 | 914.3 |
| 20260504205936 | 15 | 75 | 19.3 | 24.1 | 0.00 | 0.00 | 0.00 | 97 | 914.4 |
| 20260504205735 | 15 | 85 | 19.3 | 24.1 | 0.00 | 0.00 | 0.00 | 97 | 914.4 |
| 20260504205336 | 15 | 67 | 16.1 | 24.1 | 0.00 | 0.00 | 0.00 | 97 | 914.5 |
| 20260504205235 | 15 | 51 | 16.1 | 24.1 | 0.00 | 0.00 | 0.00 | 97 | 914.5 |
| 20260504204736 | 15 | 79 | 16.1 | 24.1 | 0.00 | 0.00 | 0.00 | 97 | 914.5 |
| 20260504204235 | 15 | 64 | 16.1 | 24.1 | 0.00 | 0.00 | 0.00 | 97 | 914.5 |
| 20260504204136 | 15 | 75 | 17.7 | 24.1 | 0.00 | 0.00 | 0.00 | 97 | 914.5 |
| 20260504203734 | 15 | 81 | 19.3 | 27.4 | 0.00 | 0.00 | 0.00 | 97 | 914.5 |
| 20260504203536 | 15 | 42 | 19.3 | 27.4 | 0.00 | 0.00 | 0.00 | 97 | 914.4 |
| 20260504203234 | 15 | 52 | 17.7 | 27.4 | 0.00 | 0.00 | 0.00 | 97 | 914.5 |
| 20260504202936 | 15 | 60 | 20.9 | 29.0 | 0.00 | 0.00 | 0.00 | 97 | 914.5 |
| 20260504202734 | 15 | 68 | 20.9 | 29.0 | 0.00 | 0.00 | 0.00 | 97 | 914.5 |
| 20260504202336 | 15 | 63 | 20.9 | 29.0 | 0.00 | 0.00 | 0.00 | 97 | 914.5 |
| 20260504202234 | 15 | 81 | 22.5 | 29.0 | 0.00 | 0.00 | 0.00 | 97 | 914.5 |
| 20260504201736 | 15 | 68 | 24.1 | 32.2 | 0.00 | 0.00 | 0.00 | 97 | 914.4 |
| 20260504201734 | 15 | 78 | 24.1 | 32.2 | 0.00 | 0.00 | 0.00 | 97 | 914.3 |
| 20260504201235 | 15 | 76 | 25.7 | 33.8 | 0.00 | 0.00 | 0.00 | 97 | 914.3 |
| 20260504201136 | 15 | 72 | 22.5 | 33.8 | 0.00 | 0.00 | 0.00 | 97 | 914.2 |
| 20260504200734 | 15 | 71 | 27.4 | 33.8 | 0.00 | 0.00 | 0.00 | 97 | 914.2 |
| 20260504200536 | 15 | 84 | 24.1 | 37.0 | 0.00 | 0.00 | 0.00 | 97 | 914.1 |
| 20260504200234 | 15 | 75 | 25.7 | 37.0 | 0.00 | 0.00 | 0.00 | 97 | 914.1 |
| 20260504195936 | 15 | 73 | 25.7 | 37.0 | 0.00 | 0.00 | 0.00 | 97 | 914.1 |
| 20260504195734 | 15 | 72 | 27.4 | 37.0 | 0.00 | 0.00 | 0.00 | 97 | 914.0 |
| 20260504195336 | 15 | 83 | 22.5 | 32.2 | 0.00 | 0.00 | 0.00 | 97 | 914.0 |
| 20260504195234 | 15 | 70 | 22.5 | 29.0 | 0.00 | 0.00 | 0.00 | 97 | 914.2 |
| 20260504194736 | 15 | 38 | 22.5 | 29.0 | 0.00 | 0.00 | 0.00 | 97 | 914.2 |
| 20260504194734 | 15 | 55 | 22.5 | 29.0 | 0.00 | 0.00 | 0.00 | 97 | 914.2 |
| 20260504194234 | 15 | 78 | 20.9 | 29.0 | 0.00 | 0.00 | 0.00 | 97 | 914.3 |
| 20260504194136 | 15 | 78 | 22.5 | 29.0 | 0.00 | 0.00 | 0.00 | 97 | 914.3 |
| 20260504193734 | 15 | 73 | 24.1 | 30.6 | 0.00 | 0.00 | 0.00 | 97 | 914.3 |
| 20260504193538 | 15 | 65 | 24.1 | 30.6 | 0.00 | 0.00 | 0.00 | 97 | 914.2 |
| 20260504193234 | 15 | 55 | 22.5 | 30.6 | 0.00 | 0.00 | 0.00 | 97 | 914.3 |
| 20260504192935 | 15 | 66 | 20.9 | 32.2 | 0.00 | 0.00 | 0.00 | 97 | 914.3 |
| 20260504192734 | 15 | 45 | 20.9 | 32.2 | 0.00 | 0.00 | 0.00 | 97 | 914.4 |
| 20260504192335 | 15 | 55 | 24.1 | 32.2 | 0.00 | 0.00 | 0.00 | 97 | 914.3 |
| 20260504192234 | 15 | 61 | 25.7 | 32.2 | 0.00 | 0.00 | 0.00 | 97 | 914.3 |
| 20260504191736 | 15 | 59 | 24.1 | 32.2 | 0.00 | 0.00 | 0.00 | 97 | 914.2 |
| 20260504191734 | 15 | 63 | 24.1 | 32.2 | 0.00 | 0.00 | 0.00 | 97 | 914.2 |
| 20260504191234 | 15 | 73 | 25.7 | 29.0 | 0.00 | 0.00 | 0.00 | 97 | 914.3 |
| 20260504191135 | 15 | 45 | 25.7 | 29.0 | 0.00 | 0.00 | 0.00 | 97 | 914.3 |
| 20260504190734 | 15 | 68 | 24.1 | 33.8 | 0.00 | 0.00 | 0.00 | 97 | 914.3 |
| 20260504190535 | 15 | 86 | 27.4 | 33.8 | 0.00 | 0.00 | 0.00 | 97 | 914.2 |
| 20260504185936 | 15 | 62 | 29.0 | 37.0 | 0.00 | 0.00 | 0.00 | 97 | 914.3 |
| 20260504185335 | 15 | 76 | 29.0 | 38.6 | 0.00 | 0.00 | 0.00 | 97 | 914.2 |
| 20260504185234 | 15 | 75 | 27.4 | 38.6 | 0.00 | 0.00 | 0.00 | 97 | 914.3 |
| 20260504184736 | 15 | 80 | 25.7 | 38.6 | 0.00 | 0.00 | 0.00 | 97 | 914.4 |
| 20260504184734 | 15 | 79 | 25.7 | 38.6 | 0.00 | 0.00 | 0.00 | 97 | 914.4 |
| 20260504184234 | 15 | 71 | 29.0 | 38.6 | 0.00 | 0.00 | 0.00 | 97 | 914.4 |
| 20260504184135 | 15 | 69 | 29.0 | 37.0 | 0.00 | 0.00 | 0.00 | 97 | 914.4 |
| 20260504183734 | 15 | 73 | 27.4 | 38.6 | 0.00 | 0.00 | 0.00 | 97 | 914.3 |
| 20260504183535 | 15 | 55 | 30.6 | 38.6 | 0.00 | 0.00 | 0.00 | 97 | 914.4 |
| 20260504183233 | 15 | 67 | 29.0 | 38.6 | 0.00 | 0.00 | 0.00 | 97 | 914.4 |
| 20260504182935 | 15 | 90 | 32.2 | 38.6 | 0.00 | 0.00 | 0.00 | 97 | 914.5 |
| 20260504182733 | 15 | 80 | 30.6 | 40.2 | 0.00 | 0.00 | 0.00 | 97 | 914.6 |
| 20260504182335 | 15 | 83 | 32.2 | 40.2 | 0.00 | 0.00 | 0.00 | 97 | 914.3 |
| 20260504182233 | 15 | 83 | 30.6 | 41.8 | 0.00 | 0.00 | 0.00 | 97 | 914.4 |
| 20260504181736 | 15 | 82 | 33.8 | 41.8 | 0.00 | 0.00 | 0.00 | 97 | 914.2 |
| 20260504181734 | 15 | 74 | 33.8 | 41.8 | 0.00 | 0.00 | 0.00 | 97 | 914.2 |
| 20260504181233 | 15 | 72 | 33.8 | 41.8 | 0.00 | 0.00 | 0.00 | 97 | 914.6 |
| 20260504181135 | 15 | 77 | 35.4 | 41.8 | 0.00 | 0.00 | 0.00 | 97 | 914.4 |
| 20260504180734 | 15 | 85 | 32.2 | 41.8 | 0.00 | 0.00 | 0.00 | 97 | 914.8 |
| 20260504180535 | 15 | 86 | 32.2 | 40.2 | 0.00 | 0.00 | 0.00 | 97 | 914.7 |
| 20260504180233 | 15 | 79 | 29.0 | 40.2 | 0.00 | 0.00 | 0.00 | 97 | 914.8 |
| 20260504175935 | 15 | 67 | 30.6 | 40.2 | 0.00 | 0.00 | 0.00 | 97 | 915.1 |
| 20260504175733 | 15 | 73 | 29.0 | 38.6 | 0.00 | 0.00 | 0.00 | 97 | 915.0 |
| 20260504175335 | 15 | 89 | 27.4 | 33.8 | 0.00 | 0.00 | 0.00 | 97 | 915.0 |
| 20260504175233 | 15 | 71 | 27.4 | 33.8 | 0.00 | 0.00 | 0.00 | 97 | 915.2 |
| 20260504174735 | 15 | 78 | 24.1 | 35.4 | 0.00 | 0.00 | 0.00 | 97 | 915.3 |
| 20260504174733 | 15 | 77 | 24.1 | 35.4 | 0.00 | 0.00 | 0.00 | 97 | 915.4 |
| 20260504174233 | 15 | 71 | 24.1 | 35.4 | 0.00 | 0.00 | 0.00 | 97 | 915.4 |
| 20260504174135 | 15 | 78 | 25.7 | 37.0 | 0.00 | 0.00 | 0.00 | 97 | 915.4 |
| 20260504173733 | 15 | 65 | 22.5 | 45.1 | 0.00 | 0.00 | 0.00 | 97 | 915.4 |
| 20260504173534 | 15 | 62 | 24.1 | 45.1 | 0.00 | 0.00 | 0.00 | 97 | 915.3 |
| 20260504173233 | 15 | 70 | 29.0 | 45.1 | 0.00 | 0.00 | 0.00 | 97 | 915.4 |
| 20260504172935 | 15 | 66 | 29.0 | 38.6 | 0.00 | 0.00 | 0.00 | 97 | 915.1 |
| 20260504172733 | 15 | 65 | 27.4 | 38.6 | 0.00 | 0.00 | 0.00 | 97 | 915.2 |
| 20260504172334 | 15 | 61 | 30.6 | 38.6 | 0.00 | 0.00 | 0.00 | 97 | 915.3 |
| 20260504171735 | 15 | 86 | 29.0 | 33.8 | 0.00 | 0.00 | 0.00 | 97 | 915.4 |
| 20260504171134 | 15 | 77 | 29.0 | 38.6 | 0.00 | 0.00 | 0.00 | 97 | 915.5 |
| 20260504170534 | 15 | 63 | 27.4 | 37.0 | 0.00 | 0.00 | 0.00 | 97 | 915.6 |
| 20260504160232 | 15 | 81 | 33.8 | 43.5 | 0.00 | 0.00 | 0.00 | 97 | 915.7 |
| 20260504151133 | 16 | 60 | 33.8 | 41.8 | 0.00 | 0.00 | 0.00 | 97 | 916.2 |
| 20260504150732 | 16 | 96 | 29.0 | 37.0 | 0.00 | 0.00 | 0.00 | 97 | 916.1 |
| 20260504150533 | 16 | 75 | 8.0 | 37.0 | 0.00 | 0.00 | 0.00 | 97 | 916.2 |
| 20260504150232 | 16 | 67 | 24.1 | 43.5 | 0.00 | 0.00 | 0.00 | 97 | 916.1 |
| 20260504141133 | 16 | 68 | 37.0 | 46.7 | 0.00 | 0.00 | 0.00 | 97 | 915.8 |
| 20260504140732 | 16 | 73 | 35.4 | 51.5 | 0.00 | 0.00 | 0.00 | 97 | 915.9 |
| 20260504140533 | 16 | 46 | 35.4 | 51.5 | 0.00 | 0.00 | 0.00 | 97 | 915.8 |
| 20260504140232 | 16 | 77 | 32.2 | 45.1 | 0.00 | 0.00 | 0.00 | 97 | 915.6 |
| 20260504130731 | 16 | 67 | 33.8 | 45.1 | 0.00 | 0.00 | 0.00 | 97 | 916.0 |
| 20260504130532 | 16 | 65 | 29.0 | 35.4 | 0.00 | 0.00 | 0.00 | 97 | 916.0 |
| 20260504130231 | 16 | 85 | 6.4 | 30.6 | 0.00 | 0.00 | 0.00 | 97 | 916.0 |
| 20260504120231 | 16 | 95 | 3.2 | 32.2 | 0.00 | 0.00 | 0.00 | 97 | 915.0 |
| 20260504100531 | 17 | 84 | 27.4 | 33.8 | 0.00 | 0.00 | 0.00 | 97 | 915.2 |
| 20260504100230 | 17 | 71 | 24.1 | 35.4 | 0.00 | 0.00 | 0.00 | 97 | 915.3 |
| 20260504080229 | 16 | 70 | 0.0 | 16.1 | 0.00 | 0.00 | 0.00 | 97 | 915.8 |
| 20260504070228 | 16 | 74 | 0.0 | 19.3 | 0.00 | 0.00 | 0.00 | 96 | 916.4 |
| 20260504060229 | 17 | 85 | 6.4 | 17.7 | 0.00 | 0.00 | 0.00 | 89 | 916.8 |
| 20260504050727 | 17 | 80 | 16.1 | 25.7 | 0.00 | 0.00 | 0.00 | 87 | 917.0 |
| 20260504050529 | 17 | 104 | 17.7 | 25.7 | 0.00 | 0.00 | 0.00 | 88 | 917.0 |
| 20260504045929 | 17 | 98 | 20.9 | 29.0 | 0.00 | 0.00 | 0.00 | 86 | 916.7 |
| 20260504045727 | 18 | 67 | 1.6 | 24.1 | 0.00 | 0.00 | 0.00 | 87 | 916.9 |
| 20260504045329 | 18 | 83 | 17.7 | 27.4 | 0.00 | 0.00 | 0.00 | 88 | 916.9 |
| 20260504045227 | 18 | 67 | 17.7 | 27.4 | 0.00 | 0.00 | 0.00 | 87 | 916.9 |
| 20260504044729 | 18 | 71 | 16.1 | 25.7 | 0.00 | 0.00 | 0.00 | 87 | 917.0 |
| 20260504044727 | 18 | 76 | 16.1 | 25.7 | 0.00 | 0.00 | 0.00 | 87 | 917.0 |
| 20260504044227 | 18 | 73 | 16.1 | 27.4 | 0.00 | 0.00 | 0.00 | 88 | 917.0 |
| 20260504044128 | 18 | 66 | 16.1 | 27.4 | 0.00 | 0.00 | 0.00 | 89 | 917.1 |
| 20260504043727 | 18 | 86 | 19.3 | 27.4 | 0.00 | 0.00 | 0.00 | 88 | 916.8 |
| 20260504043528 | 18 | 78 | 17.7 | 27.4 | 0.00 | 0.00 | 0.00 | 88 | 916.9 |
| 20260504043227 | 18 | 70 | 0.0 | 16.1 | 0.00 | 0.00 | 0.00 | 88 | 916.9 |
| 20260504042928 | 18 | 84 | 17.7 | 24.1 | 0.00 | 0.00 | 0.00 | 87 | 916.9 |
| 20260504042727 | 18 | 60 | 17.7 | 24.1 | 0.00 | 0.00 | 0.00 | 88 | 916.9 |
| 20260504042328 | 17 | 77 | 16.1 | 24.1 | 0.00 | 0.00 | 0.00 | 88 | 916.8 |
| 20260504042229 | 17 | 64 | 17.7 | 24.1 | 0.00 | 0.00 | 0.00 | 89 | 916.9 |
| 20260504040727 | 17 | 72 | 16.1 | 20.9 | 0.00 | 0.00 | 0.00 | 90 | 917.1 |
| 20260504040528 | 17 | 78 | 16.1 | 20.9 | 0.00 | 0.00 | 0.00 | 90 | 917.1 |
| 20260504040227 | 17 | 49 | 14.5 | 20.9 | 0.00 | 0.00 | 0.00 | 90 | 917.1 |
| 20260504035928 | 17 | 64 | 11.3 | 17.7 | 0.00 | 0.00 | 0.00 | 90 | 917.1 |
| 20260504035727 | 17 | 66 | 16.1 | 20.9 | 0.00 | 0.00 | 0.00 | 90 | 917.1 |
| 20260504035328 | 17 | 84 | 14.5 | 20.9 | 0.00 | 0.00 | 0.00 | 89 | 917.2 |
| 20260504035227 | 17 | 72 | 14.5 | 20.9 | 0.00 | 0.00 | 0.00 | 90 | 917.1 |
| 20260504034728 | 17 | 78 | 1.6 | 17.7 | 0.00 | 0.00 | 0.00 | 90 | 917.2 |
| 20260504034228 | 17 | 85 | 12.9 | 17.7 | 0.00 | 0.00 | 0.00 | 90 | 917.2 |
| 20260504034128 | 17 | 57 | 8.0 | 17.7 | 0.00 | 0.00 | 0.00 | 90 | 917.2 |
| 20260504033727 | 16 | 71 | 0.0 | 14.5 | 0.00 | 0.00 | 0.00 | 90 | 917.2 |
| 20260504031728 | 17 | 52 | 4.8 | 19.3 | 0.00 | 0.00 | 0.00 | 86 | 917.1 |
| 20260504031726 | 17 | 55 | 4.8 | 19.3 | 0.00 | 0.00 | 0.00 | 86 | 917.0 |
| 20260504031228 | 17 | 71 | 0.0 | 16.1 | 0.00 | 0.00 | 0.00 | 87 | 917.0 |
| 20260504031129 | 17 | 58 | 0.0 | 0.0 | 0.00 | 0.00 | 0.00 | 87 | 917.1 |
| 20260504030726 | 17 | 60 | 0.0 | 14.5 | 0.00 | 0.00 | 0.00 | 86 | 917.2 |
| 20260504030528 | 17 | 57 | 0.0 | 12.9 | 0.00 | 0.00 | 0.00 | 86 | 917.2 |
| 20260504030226 | 17 | 78 | 4.8 | 16.1 | 0.00 | 0.00 | 0.00 | 86 | 917.3 |
| 20260504025927 | 17 | 64 | 1.6 | 16.1 | 0.00 | 0.00 | 0.00 | 87 | 917.4 |
| 20260504025726 | 17 | 46 | 1.6 | 12.9 | 0.00 | 0.00 | 0.00 | 86 | 917.4 |
| 20260504025226 | 17 | 67 | 0.0 | 12.9 | 0.00 | 0.00 | 0.00 | 86 | 917.4 |
| 20260504024728 | 17 | 73 | 1.6 | 16.1 | 0.00 | 0.00 | 0.00 | 86 | 917.4 |
| 20260504024726 | 17 | 62 | 1.6 | 16.1 | 0.00 | 0.00 | 0.00 | 86 | 917.4 |
| 20260504024226 | 17 | 70 | 0.0 | 0.0 | 0.00 | 0.00 | 0.00 | 85 | 917.4 |
| 20260504024127 | 17 | 91 | 0.0 | 17.7 | 0.00 | 0.00 | 0.00 | 85 | 917.4 |
| 20260504022226 | 17 | 66 | 1.6 | 14.5 | 0.00 | 0.00 | 0.00 | 85 | 917.3 |
| 20260504021728 | 18 | 64 | 12.9 | 14.5 | 0.00 | 0.00 | 0.00 | 85 | 917.2 |
| 20260504021726 | 18 | 38 | 12.9 | 14.5 | 0.00 | 0.00 | 0.00 | 85 | 917.2 |
| 20260504020727 | 17 | 45 | 3.2 | 17.7 | 0.00 | 0.00 | 0.00 | 84 | 917.1 |
| 20260504015927 | 17 | 21 | 3.2 | 16.1 | 0.00 | 0.00 | 0.00 | 85 | 917.1 |
| 20260504015726 | 17 | 34 | 8.0 | 17.7 | 0.00 | 0.00 | 0.00 | 84 | 917.0 |
| 20260504015327 | 17 | 27 | 16.1 | 22.5 | 0.00 | 0.00 | 0.00 | 84 | 916.8 |
| 20260504015226 | 17 | 57 | 16.1 | 22.5 | 0.00 | 0.00 | 0.00 | 84 | 916.8 |